DELTA 1 DEB

Satellite information

Favourite Embed

Satellite Type and Status

DEBRISIN ORBIT

Key statistics

Satellite DELTA 1 DEB at a glance.

Uptime

17345

Days in orbit

Revolutions

≈ 14.0

Per day

Orbit

SSO

Sun Synchronous Orbit

Inclination

98.8

Latest

Satellite identification and parameters

Extended collection of information and parameters for DELTA 1 DEB.

Object identification

Identified? True

Debris? True

Object name: DELTA 1 DEB

International designator: 1978-026FC

Object number (NORAD): 13565

Object ID (CCSDS): 13565

Country: UNITED STATES OF AMERICA (US)

Current information (Y/N): Y

RCS size: SMALL

Orbital parameters

Period: 103.124 minutes

Inclination: 98.8189 deg

SMA: 7284.519 km

Apoapsis: 956.027 km

Periapsis: 856.741 km

RAAN: 204.3242 deg

Eccentricy: 0.00681489

Argument of periapsis: 39.3616 deg

Mean anomaly: 18.0979 deg

Mean motion: 13.96373013 rev/day

Mean motion (dot): 0.00000639 rev/day2

B* drag term: 0.00048404559 1/REarth

Two-line elements (TLE)

Creation date: Aug. 29, 2025, 2:15 a.m.

Reference frame: TEME

Reference center: EARTH

Epoch: Aug. 28, 2025, 8:05 p.m. UTC

TLE line 0: 0 DELTA 1 DEB

TLE line 1: 1 13565U 78026FC 25240.83745578 .00000639 00000-0 48405-3 0 9995

TLE line 2: 2 13565 98.8189 204.3242 0068149 39.3616 18.0979 13.96373013195991

Live tracking on map

Real-time ground track for satellite DELTA 1 DEB.

In-orbit conjunctions

A list of the most updated potential collisions computed for object DELTA 1 DEB.

Target Orbit TCA Probability of collision Miss distance Type
METEOR 2-5 LEO 2024-07-12 03:01:51 0.002947724 123.0 (m) PAYLOAD

Associated space launch

Earth observation satellite

DELTA 1 DEB was lifted into orbit during the mission ‘Delta 2910 | Landsat 3’, on board a Delta 2910 space rocket.

The launch took place on March 5, 1978, 5:54 p.m. from Space Launch Complex 2W.

For more information about the launch, click the button.

Launch to space Delta 2910 | Landsat 3
Delta 2910 | Landsat 3

Agency: N/A

Status: Launch Successful

Launch date: March 5, 1978, 5:54 p.m. UTC

Rocket: Delta 2910

Launch pad: Space Launch Complex 2W

Location: Vandenberg SFB, CA, USA

...

Latest news about this satellite

There are no fresh news available about this satellite. Check back as we update our databases every day.


Newsletter sign-up

Weekly statistics, charts and insights to help you stay on top of the space industry.